Probability
18 17 15 13 13 14 15 15 16 18 20 18 16 14 13 10 9 12 12 10 8 8 10 12 14 14 15 16 18 19 18 19 20 19 14 9 7 10 17 19 14 11 10
16 14 10 8 8 9 9 11 13 15 17 16 13 12 11 9 9 12 12 8 6 6 8 9 9 10 12 13 16 18 17 17 19 20 16 10 6 7 11 14 13 13 15
10 8 5 3 3 4 4 7 12 14 13 12 9 7 6 7 8 11 10 7 5 6 7 7 6 6 7 8 11 13 11 12 15 17 16 10 6 5 6 6 9 13 17
5 4 3 1 1 3 4 7 12 13 11 9 7 5 4 4 6 8 8 6 5 6 6 6 5 4 3 4 6 6 5 7 10 12 11 9 7 6 3 2 3 8 11
2 2 1 1 2 3 4 6 8 9 7 6 6 6 5 4 5 5 4 3 3 4 4 4 6 6 4 3 3 3 3 4 6 7 7 7 7 5 3 1 1 3 4
1 1 0 0 1 1 1 2 4 4 4 3 3 4 4 4 3 2 1 1 1 2 2 3 6 7 7 5 3 3 3 4 5 6 7 6 5 4 2 1 1 1 1
0 0 0 0 0 0 0 0 1 1 1 1 1 1 1 1 1 1 0 0 1 2 2 2 4 6 6 5 4 5 4 3 4 6 8 7 5 3 1 0 1 1 1
0 0 0 0 0 0 0 0 0 0 0 0 1 0 0 0 0 0 0 0 0 1 1 1 2 3 3 3 4 5 5 4 4 5 7 7 6 3 2 1 1 1 2
0 0 0 0 0 0 0 0 0 0 0 0 0 0 0 0 0 0 0 0 0 0 0 0 1 2 2 3 3 4 5 5 4 5 6 7 6 5 3 3 2 1 1
0 0 0 0 0 0 0 0 0 0 0 0 0 0 0 0 0 0 0 0 0 0 0 0 0 1 1 2 3 3 4 4 5 6 6 6 5 5 4 4 3 2 1
0 0 0 0 0 0 0 0 0 0 0 0 0 0 0 0 0 0 0 0 0 0 0 0 0 0 0 1 1 2 2 3 3 4 4 3 3 4 4 3 3 3 3
0 0 0 0 0 0 0 0 0 0 0 0 0 0 0 0 0 0 0 0 0 0 0 0 0 0 0 0 0 1 1 1 1 2 2 1 2 3 3 3 3 4 5
0 0 0 0 0 0 0 0 0 0 0 0 0 0 0 0 0 0 0 0 0 0 0 0 0 0 0 0 0 0 0 0 0 1 1 1 2 3 3 2 3 4 4
0 0 0 0 0 0 0 0 0 0 0 0 0 0 0 0 0 0 0 0 0 0 0 0 0 0 0 0 0 0 0 0 0 0 0 0 2 3 2 0 1 2 2
0 0 0 0 0 0 0 0 0 0 0 0 0 0 0 0 0 0 0 0 0 0 0 0 0 0 0 0 0 0 0 0 0 0 0 0 0 1 0 0 0 1 2
0 0 0 0 0 0 0 0 0 0 0 0 0 0 0 0 0 0 0 0 0 0 0 0 0 0 0 0 0 0 0 0 0 0 0 0 0 0 0 0 0 1 2
0 0 0 0 0 0 0 0 0 0 0 0 0 0 0 0 0 0 0 0 0 0 0 0 0 0 0 0 0 0 0 0 0 0 0 0 0 0 1 0 0 0 1
0 0 0 0 0 0 0 0 0 0 0 0 0 0 0 0 0 0 0 0 0 0 0 0 0 0 0 0 0 0 0 0 0 0 0 0 0 0 0 0 0 0 0
0 0 0 0 0 0 0 0 0 0 0 0 0 0 0 0 0 0 0 0 0 0 0 0 0 0 0 0 0 0 0 0 0 0 0 0 0 0 0 0 0 0 0
0 0 0 0 0 0 0 0 0 0 0 0 0 0 0 0 0 0 0 0 0 0 0 0 0 0 0 0 0 0 0 0 0 0 0 0 0 0 0 0 0 0 0
0 0 0 0 0 0 0 0 0 0 0 0 0 0 0 0 0 0 0 0 0 0 0 0 0 0 0 0 0 0 0 0 0 0 0 0 0 0 0 0 0 0 0
0 0 0 0 0 0 0 0 0 0 0 0 0 0 0 0 0 0 0 0 0 0 0 0 0 0 0 0 0 0 0 0 0 0 0 0 0 0 0 0 0 0 0
0 0 0 0 0 0 0 0 0 0 0 0 0 0 0 0 0 0 0 0 0 0 0 0 0 0 0 0 0 0 0 0 0 0 0 0 0 0 0 0 0 0 0
0 0 0 0 0 0 0 0 0 0 0 0 0 0 0 0 0 0 0 0 0 0 0 0 0 0 0 0 0 0 0 0 0 0 0 0 0 0 0 0 0 0 0
0 0 0 0 0 0 0 0 0 0 0 0 0 0 0 0 0 0 0 0 0 0 0 0 0 0 0 0 0 0 0 0 0 0 0 0 0 0 0 0 0 0 0
0 0 0 0 0 0 0 0 0 0 0 0 0 0 0 0 0 0 0 0 0 0 0 0 0 0 0 0 0 0 0 0 0 0 0 0 0 0 0 0 0 0 0
Wind_Speed
8 7 6 5 6 5 5 4 3 3 1 0 1 1 1 1 1 1 1 2 3 3 4 5 4 6 5 6 7 6 7 7 6 6 7 8 10 10 9 10 10 11 12
7 6 6 5 5 5 4 3 2 2 0 1 1 1 2 2 2 2 1 2 3 4 4 4 5 5 5 6 6 6 5 5 5 5 6 6 7 8 10 9 10 11 9
5 5 5 4 4 4 2 2 2 1 1 2 2 1 2 3 3 2 2 2 4 4 5 5 6 5 7 5 5 6 7 6 5 6 6 6 6 4 6 8 8 8 8
5 5 4 3 3 3 2 2 1 1 1 2 3 4 4 5 4 4 3 4 4 5 5 6 6 6 6 5 7 6 5 7 7 5 6 7 7 6 5 6 6 8 8
4 4 4 4 3 3 3 3 3 2 2 3 3 5 5 5 5 5 4 6 5 6 6 6 6 6 7 6 6 6 7 7 7 7 6 7 6 9 8 8 6 6 7
5 5 5 5 5 4 4 4 3 3 2 3 3 4 6 6 7 7 6 6 5 5 6 7 6 7 7 6 7 7 8 8 8 7 7 7 7 7 7 8 8 7 6
6 6 6 5 5 4 3 3 3 2 3 3 4 4 5 6 6 7 6 7 7 6 5 7 6 7 7 8 8 8 8 9 9 9 9 8 8 8 7 8 8 7 6
6 5 5 5 4 3 2 2 2 3 4 4 4 4 5 6 5 6 8 8 7 7 7 8 8 9 9 9 8 9 9 8 9 11 10 8 9 8 8 8 8 8 7
6 5 5 4 3 2 1 2 2 3 3 4 4 4 5 6 7 8 8 7 6 7 8 8 9 9 9 9 9 9 9 9 10 11 11 10 9 8 8 8 8 8 8
6 5 4 3 2 1 1 2 3 4 4 5 5 5 6 6 7 8 8 8 9 8 9 9 10 10 10 10 10 10 10 9 10 9 10 9 9 8 8 8 8 8 9
5 5 3 2 1 1 2 3 4 4 4 5 6 7 7 7 7 7 8 8 8 9 9 9 10 10 10 10 9 11 11 11 11 11 11 11 11 9 8 8 8 8 8
4 4 3 1 1 2 3 4 5 5 5 6 6 7 7 7 8 8 8 8 9 9 9 9 10 11 10 10 11 12 12 12 12 12 12 12 10 11 10 9 9 8 8
4 3 2 1 2 3 4 5 5 6 6 7 7 7 8 8 8 9 8 9 9 9 10 9 10 11 10 10 11 11 12 12 12 12 12 12 12 12 11 11 10 9 9
4 2 1 1 2 3 4 5 5 6 6 7 8 8 8 8 9 9 9 9 9 10 10 10 10 10 10 11 11 11 11 12 12 12 12 13 13 13 12 11 11 10 9
3 2 1 1 3 3 4 4 5 6 6 7 8 8 8 8 8 9 9 9 9 10 9 10 10 10 10 9 9 11 12 12 12 12 13 13 12 11 10 10 9 10 9
3 1 1 2 3 4 4 5 5 6 7 7 8 8 8 9 8 9 9 9 9 9 9 10 10 10 9 4 5 9 13 13 13 12 12 12 12 13 14 14 12 11 11
2 1 1 2 3 3 4 5 6 6 7 7 8 8 8 8 9 9 9 9 9 9 9 10 10 11 9 6 7 9 12 14 13 12 11 11 11 11 12 13 15 15 14
2 1 1 1 2 3 4 5 6 6 7 7 8 8 8 9 9 9 9 9 9 9 9 10 10 11 9 6 8 9 12 13 13 13 13 12 12 11 10 11 12 13 13
2 1 0 1 2 3 4 5 6 6 7 7 8 8 9 9 10 10 10 9 9 10 10 9 10 11 10 6 6 8 10 10 12 12 12 11 11 7 7 10 11 11 10
3 2 1 1 2 3 4 5 6 6 7 8 8 9 9 9 10 10 10 9 9 10 10 9 9 10 10 5 5 7 9 10 9 9 9 8 9 5 6 10 10 11 10
4 3 2 2 2 3 4 5 6 6 7 8 8 9 9 9 9 9 9 9 9 9 9 10 9 8 8 7 5 7 8 9 9 8 6 4 6 7 8 9 10 8 7
5 4 3 2 2 3 4 6 6 6 7 7 8 9 9 9 8 8 9 8 9 9 8 8 8 7 5 5 4 6 8 9 9 8 6 4 3 6 8 8 7 6 6
5 4 4 3 3 3 4 6 6 6 7 8 9 9 9 8 8 8 9 8 7 7 7 7 7 7 6 4 6 8 9 10 8 6 6 4 4 6 8 10 8 8 8
5 5 5 4 4 4 5 6 6 6 7 8 8 8 8 8 7 6 7 7 7 7 7 8 8 8 7 6 6 5 5 6 8 7 6 8 9 8 6 6 9 9 7
5 5 5 5 5 4 5 6 5 6 7 8 8 8 8 7 8 7 6 7 6 5 7 9 9 9 9 8 8 8 8 7 5 6 5 5 5 7 7 7 7 7 7
5 5 6 6 6 5 6 6 6 6 7 8 8 7 7 6 7 8 7 5 7 6 10 11 11 9 8 10 10 10 10 10 9 7 6 5 5 6 6 6 6 7 7
Wind_Direction
102 100 100 102 106 101 97 91 85 94 114 97 299 286 291 284 275 278 305 282 283 276 267 273 252 253 251 255 252 248 246 244 247 254 256 252 244 240 238 237 240 235 229
117 112 116 121 114 106 104 113 113 96 61 16 309 309 318 292 307 313 306 292 290 283 266 269 268 259 262 252 253 245 257 253 239 248 258 256 238 226 233 230 231 238 233
128 130 123 120 124 123 128 102 71 66 342 303 276 274 244 253 257 281 277 294 291 281 288 284 282 285 271 260 259 257 252 260 252 242 253 261 262 261 228 232 237 236 237
149 141 137 132 122 121 117 97 74 43 0 308 311 307 301 302 314 302 303 293 279 281 279 279 281 281 281 275 259 249 258 255 257 242 243 260 285 275 264 234 228 231 235
147 135 130 121 102 92 91 91 77 51 22 349 331 308 310 312 307 305 299 290 279 273 278 281 283 280 276 281 282 281 264 261 259 261 251 247 247 248 260 264 256 243 236
134 123 116 114 107 97 89 83 77 55 23 351 341 329 325 319 316 309 307 293 286 279 278 282 284 277 278 275 267 266 258 263 269 270 264 256 252 249 250 256 258 258 252
142 137 132 126 116 102 84 70 54 29 3 345 339 331 325 306 295 304 307 302 299 295 300 298 290 285 281 275 269 261 265 261 258 255 257 257 257 263 265 265 266 267 264
145 142 137 131 122 102 81 50 28 2 350 341 336 327 313 303 314 322 313 304 302 308 316 299 289 286 283 278 272 268 258 255 255 253 255 260 256 254 255 259 266 266 261
147 145 137 127 115 92 53 9 351 332 325 323 316 301 310 315 316 308 290 298 307 299 300 297 293 289 285 281 277 269 268 262 256 254 244 245 254 250 252 254 256 262 267
149 144 138 129 104 50 18 342 324 320 315 309 310 318 313 305 302 299 310 304 300 298 295 291 291 289 285 279 272 271 261 259 258 257 260 255 254 251 251 253 253 253 260
158 155 151 146 165 300 321 321 318 311 312 315 315 312 309 310 303 296 298 300 298 297 291 291 290 288 284 281 275 272 274 264 262 260 254 249 253 256 252 247 248 248 249
158 156 155 170 289 321 327 328 323 317 317 317 310 309 310 308 305 306 306 303 299 295 293 292 289 285 283 282 277 274 273 268 263 260 258 254 248 244 250 250 248 249 252
166 164 172 273 329 333 332 328 323 323 324 323 315 315 313 313 309 308 308 304 300 297 295 291 288 288 287 283 279 276 274 270 266 263 260 257 254 250 246 245 246 244 242
177 188 212 305 338 329 328 325 327 330 326 321 316 318 316 314 310 309 307 303 301 298 296 292 289 287 286 283 280 278 275 272 268 264 261 259 255 251 249 245 243 244 245
188 200 267 331 326 328 326 328 327 331 326 319 317 319 317 314 312 310 307 306 302 297 296 293 289 287 282 281 290 289 280 275 270 264 259 256 256 261 257 257 249 240 237
196 209 273 313 328 331 329 328 326 329 323 319 320 323 318 316 314 310 308 305 301 299 296 292 291 289 287 325 317 291 287 282 273 268 264 260 245 238 233 244 256 260 250
195 224 305 328 334 334 332 323 325 322 319 318 320 321 318 315 315 312 310 307 304 301 297 295 291 289 288 275 263 264 276 276 273 269 266 264 257 240 239 228 226 235 243
197 199 289 331 334 335 327 320 319 318 318 318 321 323 320 315 314 310 308 306 303 301 299 297 296 295 292 273 259 261 265 267 267 264 261 259 262 254 250 246 237 232 226
171 161 230 325 333 325 327 319 314 318 318 322 325 325 320 315 312 311 311 310 306 302 300 297 297 295 292 280 262 265 274 268 268 266 263 260 257 248 235 246 244 241 236
169 179 199 273 304 320 317 308 312 319 322 325 323 319 314 311 309 310 309 308 303 298 300 303 301 298 297 296 265 264 276 277 275 270 262 251 249 249 224 242 241 239 234
174 182 214 262 298 308 301 298 308 317 322 319 314 310 310 306 302 304 304 303 301 303 303 302 299 296 293 287 259 256 276 286 286 281 273 261 197 217 229 245 248 245 246
184 193 215 250 269 284 285 290 301 313 313 310 306 307 309 307 308 307 304 303 301 298 298 300 302 302 296 287 277 247 255 277 282 280 280 278 198 216 229 236 238 237 246
192 204 222 245 258 265 273 285 300 306 305 304 305 307 307 305 305 305 305 302 298 300 310 312 315 318 319 304 236 240 246 250 264 278 286 276 237 233 229 226 222 220 229
199 210 227 248 262 269 269 277 288 293 294 297 302 303 303 306 313 307 306 309 313 315 315 316 318 318 317 327 334 318 286 247 248 258 248 227 227 236 245 210 206 219 225
201 213 231 250 264 266 268 273 277 281 287 292 296 299 303 313 309 304 304 304 313 316 303 312 316 319 321 344 342 317 313 312 311 299 267 245 223 217 217 217 213 210 206
202 216 233 249 261 263 265 270 271 271 279 285 293 300 305 312 307 308 306 252 251 252 248 256 274 294 300 311 307 298 290 284 285 280 262 251 238 226 214 210 206 205 206